Miscellaneous Local Product
Issued by NWS North Platte, NE

Home | Current Version | Previous Version | Graphics & Text | Print | Product List | Glossary On
Versions: 1 2 3 4 5 6 7 8 9 10 11 12 13 14 15 16 17 18 19 20 21 22 23 24 25 26 27 28 29 30 31 32 33 34 35 36 37 38 39 40 41 42 43 44 45 46 47 48 49 50
000
AXUS43 KLBF 261510
MISLBF


WESTERN AND NORTH CENTRAL NEBRASKA HOURLY WEATHER ROUNDUP
NATIONAL WEATHER SERVICE NORTH PLATTE NE
1000 AM CDT THU MAR 26 2015

***STATIONS NOT REPORTING VARIABLES SUCH AS SKY/WEATHER OR
PRESSURE ARE PROVIDED BY THE NEBRASKA DEPARTMENT OF
ROADS...RAWS...AND APRS NETWORKS...AND ARE NOT UNDER
NATIONAL WEATHER SERVICE QUALITY CONTROL***

...OBSERVATIONS IN AND NEAR THE EASTERN PANHANDLE OF NEBRASKA...

CITY           SKY/WX    TMP DP  RH WIND       PRES   REMARKS
PINE RIDGE     CLOUDY    41  27  57 W12       30.10S
CHADRON        CLOUDY    42  28  57 NW12      30.13S
ALLIANCE       CLOUDY    45  29  53 NW16G23   30.11S
SIDNEY         CLOUDY    44  26  49 NW14      30.15S
WHITECLAY        N/A     39  25  57 W14         N/A  WCI  31
CRESCENT LAKE    N/A     41  30  65 W9          N/A
BIG SPRINGS      N/A     32  29  90 W7          N/A  WCI  26
$$

...OBSERVATIONS IN NORTH CENTRAL NEBRASKA...

CITY           SKY/WX    TMP DP  RH WIND       PRES   REMARKS
VALENTINE      CLOUDY    30  23  75 CALM      30.10F
THEDFORD       CLOUDY    38  25  58 SW8       30.13F WCI  32
AINSWORTH      CLOUDY    35  26  71 S9        30.11F WCI  27
O`NEILL        MOSUNNY   34  26  72 S5        30.18F WCI  30
ORD            MOSUNNY   31  24  75 CALM      30.19F
BROKEN BOW     CLOUDY    34  25  69 S3        30.17F
BROWNLEE         N/A     34  28  79 S8          N/A  WCI  27
SPRINGVIEW       N/A     26  22  84 CALM        N/A
BREWSTER         N/A     34  25  69 SW9         N/A  WCI  27
ROSE             N/A     34  29  82 S6          N/A  WCI  29
NEWPORT          N/A     36  29  74 S6          N/A  WCI  32
SARGENT          N/A     31  26  80 E3          N/A
COMSTOCK         N/A     38  28  66 SW3         N/A
EWING            N/A     34  28  79 SW3         N/A
$$

...OBSERVATIONS IN SOUTHWEST NEBRASKA AND FAR NORTHEAST COLORADO...

CITY           SKY/WX    TMP DP  RH WIND       PRES   REMARKS
WRAY           CLOUDY    39  33  79 W12G17    30.17F WCI  32
HOLYOKE        FAIR      41  34  75 W14       30.16S
IMPERIAL         N/A     37  30  75 W10       30.16F WCI  30
OGALLALA       CLOUDY    38  32  77 W14       30.15S WCI  30
NORTH PLATTE   CLOUDY    37  25  61 S10       30.16F WCI  30
MCCOOK         PTSUNNY   33  26  75 SW3       30.19F
LEXINGTON      PTSUNNY   33  26  76 CALM      30.19F
PAXTON           N/A     29  24  82 CALM        N/A
SUTHERLAND       N/A     30  25  83 W5          N/A  WCI  25
BRADY            N/A     32  25  76 CALM        N/A
GOTHENBURG       N/A     28  21  74 CALM        N/A
CALLAWAY         N/A     31  26  82 S7          N/A  WCI  24
$$

...NORTH PLATTE AREA...

CITY           SKY/WX    TMP DP  RH WIND       PRES   REMARKS
AIRPORT        CLOUDY    37  25  61 S10       30.16F WCI  30
DOWNTOWN         N/A     36  25  65 SW3         N/A
$$

...SOME WEATHER OBSERVATIONS FROM AROUND THE REGION...

CITY           SKY/WX    TMP DP  RH WIND       PRES   REMARKS
DENVER         MOSUNNY   40  24  53 SW12      30.22S WCI  33
LARAMIE        SUNNY     34  18  52 SW17      30.20S WCI  23
CHEYENNE       PTSUNNY   39  18  42 W17       30.18S WCI  30
SCOTTSBLUFF    CLOUDY    35  28  75 W9        30.17R WCI  28
RAPID CITY     CLOUDY    50  28  42 NW22G36   30.05F
PIERRE         LGT SNOW  26  23  88 E5        30.15S VSB 3/4 WCI  20
WINNER         CLOUDY    36  24  62 SE9       30.13F WCI  29
SIOUX FALLS    PTSUNNY   36  24  62 N9        30.19R WCI  29
OMAHA          MOSUNNY   37  26  64 NW6       30.24S WCI  32
GRAND ISLAND   SUNNY     33  24  69 W3        30.23F
KANSAS CITY    MOSUNNY   39  30  70 N8        30.22S WCI  33
WICHITA        MOSUNNY   42  29  59 N10       30.26S
HAYS           MOSUNNY   37  23  56 CALM      30.26F
LIBERAL        SUNNY     39  34  81 NW6       30.30R WCI  35
GOODLAND       SUNNY     43  35  73 W8        30.20S
$$



USA.gov is the U.S. government's official web portal to all federal, state and local government web resources and services.